Weather History for KTUL - June, 2014

Change the Weather History Date:

Sunday, June 1, 2014

  Actual Average Record
Temperature  
Mean Temperature 78 °F 74 °F  
Max Temperature 86 °F 83 °F 98 °F (1934)
Min Temperature 69 °F 64 °F 50 °F (2012)
Cooling Degree Days 13 9  
Month to date cooling degree days 13 9  
Year to date cooling degree days 284 243  
Since 1 June cooling degree days 13 9  
Growing Degree Days 28 (Base 50)    
Moisture  
Dew Point 70 °F    
Average Humidity 81    
Maximum Humidity 100    
Minimum Humidity 61    
Precipitation  
Precipitation 0.00 in 0.18 in 2.83 in (1962)
Month to date precipitation 0.00 0.18  
Year to date precipitation 8.45 16.68  
Sea Level Pressure  
Sea Level Pressure 29.90 in    
Wind  
Wind Speed 12 mph (SSE)    
Max Wind Speed 24 mph    
Max Gust Speed 29 mph    
Visibility 10 miles    
Events      
T = Trace of Precipitation, MM = Missing Value Source: NWS Daily Summary

Daily Weather History Graph

Daily Weather History Graph

Search for Another Location

Airport or City:

Trip Planner

Search our weather history database for the weather conditions in past years. The results will help you decide how hot, cold, wet, or windy it might be!

Date:

Astronomy

Jun. 01, 2014 Rise Set
Actual Time 6:07 AM CDT 8:35 PM CDT
Civil Twilight 5:37 AM CDT 9:05 PM CDT
Nautical Twilight 5:01 AM CDT 9:42 PM CDT
Astronomical Twilight 4:20 AM CDT 10:22 PM CDT
Moon 9:37 AM CDT (6/1) 11:35 PM CDT (6/1)
Length of Visible Light 15h 27m
Length of Day
14h 27m
Waxing Crescent, 14% of the Moon is Illuminated
Jun 1
Waxing Crescent
Jun 5
First Quarter
Jun 12
Full
Jun 19
Last Quarter
Jun 27
New

Hourly Weather History & Observations

Time (CDT) Temp. Heat Index Dew Point Humidity Pressure Visibility Wind Dir Wind Speed Gust Speed Precip Events Conditions
12:53 AM 71.1 °F - 69.1 °F 93% 29.94 in 10.0 mi ESE 5.8 mph - N/A   Partly Cloudy
1:53 AM 72.0 °F - 69.1 °F 91% 29.93 in 10.0 mi SE 10.4 mph - N/A   Partly Cloudy
2:53 AM 71.1 °F - 69.1 °F 93% 29.93 in 10.0 mi SSE 5.8 mph - N/A   Clear
3:53 AM 71.1 °F - 69.1 °F 93% 29.93 in 10.0 mi SSE 6.9 mph - N/A   Partly Cloudy
4:43 AM 70.0 °F - 69.1 °F 97% 29.95 in 10.0 mi SSE 6.9 mph - N/A   Scattered Clouds
4:53 AM 71.1 °F - 70.0 °F 96% 29.93 in 10.0 mi SSE 8.1 mph - N/A   Mostly Cloudy
5:29 AM 71.1 °F - 69.1 °F 93% 29.95 in 10.0 mi South 6.9 mph - N/A   Scattered Clouds
5:53 AM 70.0 °F - 69.1 °F 97% 29.93 in 10.0 mi SSE 4.6 mph - N/A   Scattered Clouds
6:11 AM 70.0 °F - 69.1 °F 97% 29.96 in 9.0 mi SE 4.6 mph - N/A   Partly Cloudy
6:28 AM 70.0 °F - 69.1 °F 97% 29.96 in 8.0 mi SE 5.8 mph - N/A   Mostly Cloudy
6:53 AM 71.1 °F - 70.0 °F 96% 29.95 in 9.0 mi SSE 10.4 mph - N/A   Overcast
7:53 AM 72.0 °F - 70.0 °F 93% 29.95 in 10.0 mi SSE 9.2 mph - N/A   Overcast
8:12 AM 73.0 °F - 70.0 °F 90% 29.97 in 10.0 mi SSE 11.5 mph - N/A   Overcast
8:53 AM 73.4 °F - 69.8 °F 88% 29.96 in 10.0 mi South 12.7 mph - N/A   Overcast
9:53 AM 75.0 °F - 69.1 °F 82% 29.93 in 10.0 mi South 13.8 mph - N/A   Overcast
10:53 AM 75.9 °F - 69.1 °F 79% 29.94 in 10.0 mi South 10.4 mph - N/A   Overcast
11:53 AM 78.1 °F - 70.0 °F 76% 29.94 in 10.0 mi South 13.8 mph - N/A   Overcast
12:12 PM 78.1 °F - 70.0 °F 76% 29.96 in 10.0 mi South 13.8 mph - N/A   Overcast
12:34 PM 80.1 °F 83.2 °F 70.0 °F 71% 29.96 in 10.0 mi South 12.7 mph - N/A   Overcast
12:53 PM 80.1 °F 83.2 °F 70.0 °F 71% 29.93 in 10.0 mi South 11.5 mph - N/A   Overcast
1:53 PM 82.0 °F 85.9 °F 70.0 °F 67% 29.91 in 10.0 mi SSE 12.7 mph 23.0 mph N/A   Mostly Cloudy
2:53 PM 82.9 °F 86.5 °F 69.1 °F 63% 29.88 in 10.0 mi South 13.8 mph - N/A   Mostly Cloudy
3:53 PM 82.4 °F 86.3 °F 69.8 °F 66% 29.88 in 10.0 mi South 15.0 mph - N/A   Mostly Cloudy
4:53 PM 84.0 °F 88.4 °F 70.0 °F 63% 29.82 in 10.0 mi South 15.0 mph - N/A   Scattered Clouds
5:53 PM 84.9 °F 89.4 °F 70.0 °F 61% 29.78 in 10.0 mi South 19.6 mph 26.5 mph N/A   Scattered Clouds
6:53 PM 84.0 °F 87.8 °F 69.1 °F 61% 29.77 in 10.0 mi SSE 16.1 mph 26.5 mph N/A   Scattered Clouds
7:53 PM 82.0 °F 85.9 °F 70.0 °F 67% 29.75 in 10.0 mi South 16.1 mph - N/A   Partly Cloudy
8:53 PM 81.0 °F 84.4 °F 70.0 °F 69% 29.77 in 10.0 mi South 16.1 mph - N/A   Scattered Clouds
9:53 PM 78.8 °F - 69.8 °F 74% 29.83 in 10.0 mi SSE 13.8 mph - N/A   Clear
10:53 PM 78.1 °F - 70.0 °F 76% 29.83 in 10.0 mi SSE 11.5 mph - N/A   Clear
11:53 PM 77.0 °F - 70.0 °F 79% 29.82 in 10.0 mi SSE 13.8 mph - N/A   Overcast